User: anonymous   Login
Location: Unspecified
(0.0000°N, 0.0000°E)
Time: 04:50:11
(UTC+00:00)
Language:

USA 247 - Orbit

View from above orbital plane
View from above orbital plane
View from above satellite
View from above satellite

Ground track
Ground track

The orbit data is extracted from the following two-line orbital elements,

1 39462U 13072A   15111.08131217 0.00000000  00000-0  00000-0 0    02
2 39462 122.9997 339.6037 0004250 156.7007 203.2993 13.41425908    08
Epoch (UTC): 21 April 2015 01:57:05
Eccentricity: 0.0004250
inclination: 122.9997°
perigee height: 1101 km
apogee height: 1107 km
right ascension of ascending node: 339.6037°
argument of perigee: 156.7007°
revolutions per day: 13.41425908
mean anomaly at epoch: 203.2993°
orbit number at epoch: 0

The dashed part of the orbit path shows where the satellite is in the earth's shadow,  

DLR